Terminal Aerodrome Forecast
Issued by NWS Medford, OR

Home | Current Version | Previous Version | Text Only | Print | Product List | Glossary On
Versions: 1 2 3 4 5 6 7 8 9 10 11 12 13 14 15 16 17 18 19 20
000
FTUS46 KMFR 300539
TAFMFR
TAF
KMFR 300539Z 3006/3106 VRB03KT P6SM FEW120
     FM301200 00000KT 1SM BR BKN002
     FM301300 00000KT 1/4SM FG VV002
     FM301700 00000KT 4SM BR BKN004
     FM301800 VRB02KT P6SM SKC=

USA.gov is the U.S. government's official web portal to all federal, state and local government web resources and services.